This is the latest recevied weather packets stored in our database for station/object KW6V-15. If no packets are shown the sender has not sent any weather packets the latest 1 day(s).
| Time | Temp. | Humidity | Pressure | Rain* | Wind** | Luminosity | Snow |
|---|---|---|---|---|---|---|---|
| 1778007641 | 15° C | 81% | 1016 hPa | 0 mm | 0 m/s | - | - |
| 1778005866 | 14.44° C | 81% | 1016 hPa | 0 mm | 0 m/s | - | - |
| 1778004038 | 14.44° C | 83% | 1015.8 hPa | 0 mm | 0 m/s | - | - |
| 1778002234 | 14.44° C | 84% | 1015.7 hPa | 0 mm | 0 m/s | - | - |
| 1778000449 | 13.89° C | 85% | 1015.6 hPa | 0 mm | 0 m/s | - | - |
| 1777998625 | 13.33° C | 88% | 1015.5 hPa | 0 mm | 0 m/s | - | - |
| 1777996862 | 12.78° C | 90% | 1015.5 hPa | 0 mm | 0 m/s | - | - |
| 1777995068 | 12.78° C | 92% | 1015.6 hPa | 0 mm | 0 m/s | - | - |
| 1777993281 | 11.67° C | 92% | 1015.4 hPa | 0 mm | 0 m/s | - | - |
| 1777991421 | 11.67° C | 92% | 1015.1 hPa | 0 mm | 0 m/s | - | - |
| 1777989644 | 11.11° C | 92% | 1014.9 hPa | 0 mm | 0 m/s | - | - |
| 1777987843 | 11.11° C | 92% | 1014.8 hPa | 0 mm | 0 m/s | - | - |
| 1777986024 | 11.11° C | 92% | 1014.8 hPa | 0 mm | 0 m/s | - | - |
| 1777984280 | 11.67° C | 92% | 1014.7 hPa | 0 mm | 0 m/s | - | - |
| 1777982472 | 11.67° C | 91% | 1014.7 hPa | 0 mm | 0 m/s | - | - |
| 1777980645 | 11.67° C | 91% | 1014.7 hPa | 0 mm | 0 m/s | - | - |
| 1777978859 | 11.67° C | 91% | 1014.7 hPa | 0 mm | 0 m/s | - | - |
| 1777977038 | 11.67° C | 91% | 1014.6 hPa | 0 mm | 0 m/s | - | - |
| 1777975234 | 11.67° C | 91% | 1014.7 hPa | 0 mm | 0 m/s | - | - |
| 1777973430 | 11.67° C | 91% | 1015.3 hPa | 0 mm | 0 m/s | - | - |
| 1777971635 | 11.67° C | 91% | 1015.6 hPa | 0 mm | 0 m/s | - | - |
| 1777969839 | 11.67° C | 91% | 1015.6 hPa | 0 mm | 0 m/s | - | - |
| 1777968077 | 11.67° C | 91% | 1015.5 hPa | 0 mm | 0 m/s | - | - |
* Rain latest hour (hover to see other rain measurements)
** Current wind speed in m/s (hover to see current wind gust speed)